Time,TemperatureF,DewpointF,PressureIn,WindDirection,WindDirectionDegrees,WindSpeedMPH,WindSpeedGustMPH,Humidity,HourlyPrecipIn,Conditions,Clouds,dailyrainin,SoftwareType,DateUTC
2013-01-31 00:00:00,36.1,32.9,30.08,West,270,0.0,0.0,88,0.00,RA,,0.00,WeatherDisplay:10.37,2013-01-31 06:00:00,
2013-01-31 00:05:00,36.1,32.9,30.09,West,270,0.0,0.0,88,0.00,RA,,0.00,WeatherDisplay:10.37,2013-01-31 06:05:00,
2013-01-31 00:10:00,36.0,33.0,30.09,SW,227,0.0,0.0,89,0.00,CLR,,0.00,WeatherDisplay:10.37,2013-01-31 06:10:00,
2013-01-31 00:15:00,36.0,33.0,30.08,SE,135,0.0,0.0,89,0.00,CLR,,0.00,WeatherDisplay:10.37,2013-01-31 06:15:00,
2013-01-31 00:21:00,36.0,33.0,30.08,SE,135,0.0,0.0,89,0.00,CLR,,0.00,WeatherDisplay:10.37,2013-01-31 06:21:00,
2013-01-31 00:26:00,35.8,32.9,30.08,SE,135,0.0,0.0,89,0.00,CLR,,0.00,WeatherDisplay:10.37,2013-01-31 06:26:00,
2013-01-31 00:31:00,35.8,32.9,30.09,SE,135,0.0,0.0,89,0.00,CLR,,0.00,WeatherDisplay:10.37,2013-01-31 06:31:00,
2013-01-31 00:36:00,35.8,33.1,30.09,SE,135,0.0,0.0,90,0.00,CLR,,0.00,WeatherDisplay:10.37,2013-01-31 06:36:00,
2013-01-31 00:41:00,35.6,33.0,30.10,SE,135,0.0,0.0,90,0.00,CLR,,0.00,WeatherDisplay:10.37,2013-01-31 06:41:00,
2013-01-31 00:46:00,35.6,33.0,30.11,SW,225,0.0,0.0,90,0.00,CLR,,0.00,WeatherDisplay:10.37,2013-01-31 06:46:00,
2013-01-31 00:51:00,35.6,33.0,30.10,SW,225,0.0,0.0,90,0.00,CLR,,0.00,WeatherDisplay:10.37,2013-01-31 06:51:00,
2013-01-31 00:56:00,35.6,33.0,30.10,SW,225,0.0,0.0,90,0.00,CLR,,0.00,WeatherDisplay:10.37,2013-01-31 06:56:00,
2013-01-31 01:00:00,63.5,31.5,30.13,East,90,0.0,3.0,30,0.00,CL,CL,0.00,WeatherDisplay:10.37,2013-01-31 07:00:00,
2013-01-31 01:01:00,35.6,33.2,30.10,SE,135,0.0,0.0,91,0.00,CLR,,0.00,WeatherDisplay:10.37,2013-01-31 07:01:00,
2013-01-31 01:06:00,35.6,33.2,30.10,SE,135,0.0,0.0,91,0.00,CLR,,0.00,WeatherDisplay:10.37,2013-01-31 07:06:00,
2013-01-31 01:11:00,35.6,33.2,30.11,SW,225,0.0,0.0,91,0.00,CLR,,0.00,WeatherDisplay:10.37,2013-01-31 07:11:00,
2013-01-31 01:16:00,35.6,33.2,30.11,SW,225,0.0,0.0,91,0.00,CLR,,0.00,WeatherDisplay:10.37,2013-01-31 07:16:00,
2013-01-31 01:21:00,35.6,33.2,30.11,SW,225,0.0,0.0,91,0.00,CLR,,0.00,WeatherDisplay:10.37,2013-01-31 07:21:00,
2013-01-31 01:26:00,35.4,33.1,30.12,SW,225,0.0,0.0,91,0.00,CLR,,0.00,WeatherDisplay:10.37,2013-01-31 07:26:00,
2013-01-31 01:31:00,35.4,33.1,30.12,SW,225,0.0,0.0,91,0.00,CLR,,0.00,WeatherDisplay:10.37,2013-01-31 07:31:00,
2013-01-31 01:36:00,35.2,32.9,30.12,SW,225,0.0,0.0,91,0.00,CLR,,0.00,WeatherDisplay:10.37,2013-01-31 07:36:00,
2013-01-31 01:41:00,35.2,32.9,30.12,South,180,1.1,0.0,91,0.00,CLR,,0.00,WeatherDisplay:10.37,2013-01-31 07:41:00,
2013-01-31 01:47:00,35.4,33.3,30.11,South,180,1.1,0.0,92,0.00,CLR,,0.00,WeatherDisplay:10.37,2013-01-31 07:47:00,
2013-01-31 01:51:00,35.4,33.3,30.11,South,180,0.0,0.0,92,0.00,CLR,,0.00,WeatherDisplay:10.37,2013-01-31 07:51:00,
2013-01-31 01:57:00,35.2,33.1,30.10,SW,225,1.1,0.0,92,0.00,CLR,,0.00,WeatherDisplay:10.37,2013-01-31 07:57:00,
2013-01-31 02:00:00,63.0,28.4,30.12,NNW,338,1.0,1.0,27,0.00,CL,CL,0.00,WeatherDisplay:10.37,2013-01-31 08:00:00,
2013-01-31 02:02:00,35.4,33.3,30.11,East,90,0.0,0.0,92,0.00,CLR,,0.00,WeatherDisplay:10.37,2013-01-31 08:02:00,
2013-01-31 02:07:00,35.4,33.3,30.11,East,90,0.0,0.0,92,0.00,CLR,,0.00,WeatherDisplay:10.37,2013-01-31 08:07:00,
2013-01-31 02:12:00,35.4,33.3,30.11,South,180,0.0,0.0,92,0.00,CLR,,0.00,WeatherDisplay:10.37,2013-01-31 08:12:00,
2013-01-31 02:17:00,35.4,33.3,30.11,South,180,1.1,0.0,92,0.00,CLR,,0.00,WeatherDisplay:10.37,2013-01-31 08:17:00,
2013-01-31 02:22:00,35.4,33.3,30.12,South,180,1.1,0.0,92,0.00,CLR,,0.00,WeatherDisplay:10.37,2013-01-31 08:22:00,
2013-01-31 02:27:00,35.4,33.6,30.12,South,180,1.1,0.0,93,0.00,CLR,,0.00,WeatherDisplay:10.37,2013-01-31 08:27:00,
2013-01-31 02:32:00,35.2,33.4,30.12,SW,225,1.1,0.0,93,0.00,CLR,,0.00,WeatherDisplay:10.37,2013-01-31 08:32:00,
2013-01-31 02:37:00,35.2,33.4,30.12,SW,225,1.1,0.0,93,0.00,CLR,,0.00,WeatherDisplay:10.37,2013-01-31 08:37:00,
2013-01-31 02:42:00,35.1,33.2,30.11,SW,225,0.0,0.0,93,0.00,CLR,,0.00,WeatherDisplay:10.37,2013-01-31 08:42:00,
2013-01-31 02:47:00,34.9,33.1,30.10,North,0,0.0,0.0,93,0.00,CLR,,0.00,WeatherDisplay:10.37,2013-01-31 08:47:00,
2013-01-31 02:52:00,34.7,32.9,30.10,North,0,1.1,0.0,93,0.00,CLR,,0.00,WeatherDisplay:10.37,2013-01-31 08:52:00,
2013-01-31 02:57:00,34.5,32.7,30.10,North,0,0.0,0.0,93,0.00,CLR,,0.00,WeatherDisplay:10.37,2013-01-31 08:57:00,
2013-01-31 03:00:00,60.9,30.0,30.11,East,90,1.0,3.0,31,0.00,CL,CL,0.00,WeatherDisplay:10.37,2013-01-31 09:00:00,
2013-01-31 03:02:00,34.5,32.4,30.10,North,0,0.0,0.0,92,0.00,CLR,,0.00,WeatherDisplay:10.37,2013-01-31 09:02:00,
2013-01-31 03:07:00,34.5,32.4,30.10,North,0,0.0,0.0,92,0.00,CLR,,0.00,WeatherDisplay:10.37,2013-01-31 09:07:00,
2013-01-31 03:12:00,34.2,32.3,30.11,SE,135,0.0,0.0,93,0.00,CLR,,0.00,WeatherDisplay:10.37,2013-01-31 09:12:00,
2013-01-31 03:17:00,34.2,32.3,30.10,SE,135,0.0,0.0,93,0.00,CLR,,0.00,WeatherDisplay:10.37,2013-01-31 09:17:00,
2013-01-31 03:22:00,34.2,32.3,30.09,SE,135,0.0,0.0,93,0.00,CLR,,0.00,WeatherDisplay:10.37,2013-01-31 09:22:00,
2013-01-31 03:27:00,34.2,32.3,30.09,SE,135,0.0,0.0,93,0.00,CLR,,0.00,WeatherDisplay:10.37,2013-01-31 09:27:00,
2013-01-31 03:32:00,34.0,32.2,30.09,SE,135,0.0,0.0,93,0.00,CLR,,0.00,WeatherDisplay:10.37,2013-01-31 09:32:00,
2013-01-31 03:37:00,33.8,32.0,30.09,SE,135,0.0,0.0,93,0.00,CLR,,0.00,WeatherDisplay:10.37,2013-01-31 09:37:00,
2013-01-31 03:42:00,33.6,31.8,30.09,SE,135,0.0,0.0,93,0.00,CLR,,0.00,WeatherDisplay:10.37,2013-01-31 09:42:00,
2013-01-31 03:47:00,33.4,31.6,30.10,SE,135,0.0,0.0,93,0.00,CLR,,0.00,WeatherDisplay:10.37,2013-01-31 09:47:00,
2013-01-31 03:52:00,33.3,31.5,30.09,SE,135,0.0,0.0,93,0.00,CLR,,0.00,WeatherDisplay:10.37,2013-01-31 09:52:00,
2013-01-31 03:57:00,33.3,31.5,30.09,SE,135,0.0,0.0,93,0.00,CLR,,0.00,WeatherDisplay:10.37,2013-01-31 09:57:00,
2013-01-31 04:00:00,59.3,31.7,30.12,SE,135,0.0,3.0,35,0.00,CL,CL,0.00,WeatherDisplay:10.37,2013-01-31 10:00:00,
2013-01-31 04:02:00,33.3,31.5,30.09,SE,135,0.0,0.0,93,0.00,CLR,,0.00,WeatherDisplay:10.37,2013-01-31 10:02:00,
2013-01-31 04:07:00,33.1,31.3,30.09,SE,135,0.0,0.0,93,0.00,CLR,,0.00,WeatherDisplay:10.37,2013-01-31 10:07:00,
2013-01-31 04:12:00,32.9,31.1,30.09,SE,135,0.0,0.0,93,0.00,CLR,,0.00,WeatherDisplay:10.37,2013-01-31 10:12:00,
2013-01-31 04:18:00,33.1,31.5,30.10,SE,135,0.0,0.0,94,0.00,CLR,,0.00,WeatherDisplay:10.37,2013-01-31 10:18:00,
2013-01-31 04:23:00,32.9,31.4,30.09,SE,135,0.0,0.0,94,0.00,CLR,,0.00,WeatherDisplay:10.37,2013-01-31 10:23:00,
2013-01-31 04:28:00,32.9,31.4,30.09,SE,135,0.0,0.0,94,0.00,CLR,,0.00,WeatherDisplay:10.37,2013-01-31 10:28:00,
2013-01-31 04:33:00,32.9,31.4,30.09,SE,135,0.0,0.0,94,0.00,CLR,,0.00,WeatherDisplay:10.37,2013-01-31 10:33:00,
2013-01-31 04:38:00,33.1,31.5,30.09,SE,135,0.0,0.0,94,0.00,CLR,,0.00,WeatherDisplay:10.37,2013-01-31 10:38:00,
2013-01-31 04:43:00,32.9,31.4,30.09,SE,135,0.0,0.0,94,0.00,CLR,,0.00,WeatherDisplay:10.37,2013-01-31 10:43:00,
2013-01-31 04:48:00,33.1,31.5,30.09,SE,135,0.0,0.0,94,0.00,CLR,,0.00,WeatherDisplay:10.37,2013-01-31 10:48:00,
2013-01-31 04:53:00,32.9,31.4,30.10,SE,135,0.0,0.0,94,0.00,CLR,,0.00,WeatherDisplay:10.37,2013-01-31 10:53:00,
2013-01-31 04:58:00,32.9,31.4,30.09,East,90,1.1,0.0,94,0.00,CLR,,0.00,WeatherDisplay:10.37,2013-01-31 10:58:00,
2013-01-31 05:00:00,55.4,30.8,30.11,East,90,0.0,2.0,39,0.00,CL,CL,0.00,WeatherDisplay:10.37,2013-01-31 11:00:00,
2013-01-31 05:03:00,32.9,31.4,30.09,East,90,0.0,0.0,94,0.00,CLR,,0.00,WeatherDisplay:10.37,2013-01-31 11:03:00,
2013-01-31 05:08:00,32.9,31.6,30.09,East,90,0.0,0.0,95,0.00,CLR,,0.00,WeatherDisplay:10.37,2013-01-31 11:08:00,
2013-01-31 05:13:00,33.1,31.8,30.10,East,90,0.0,0.0,95,0.00,CLR,,0.00,WeatherDisplay:10.37,2013-01-31 11:13:00,
2013-01-31 05:18:00,32.9,31.6,30.10,West,270,0.0,0.0,95,0.00,CLR,,0.00,WeatherDisplay:10.37,2013-01-31 11:18:00,
2013-01-31 05:23:00,32.9,31.6,30.11,West,270,0.0,0.0,95,0.00,CLR,,0.00,WeatherDisplay:10.37,2013-01-31 11:23:00,
2013-01-31 05:28:00,32.9,31.6,30.11,West,270,0.0,0.0,95,0.00,CLR,,0.00,WeatherDisplay:10.37,2013-01-31 11:28:00,
2013-01-31 05:33:00,32.7,31.4,30.11,West,270,0.0,0.0,95,0.00,CLR,,0.00,WeatherDisplay:10.37,2013-01-31 11:33:00,
2013-01-31 05:38:00,32.7,31.4,30.11,SE,135,0.0,0.0,95,0.00,CLR,,0.00,WeatherDisplay:10.37,2013-01-31 11:38:00,
2013-01-31 05:43:00,32.9,31.6,30.11,SE,135,1.1,0.0,95,0.00,CLR,,0.00,WeatherDisplay:10.37,2013-01-31 11:43:00,
2013-01-31 05:48:00,32.9,31.6,30.11,SE,135,1.1,0.0,95,0.00,CLR,,0.00,WeatherDisplay:10.37,2013-01-31 11:48:00,
2013-01-31 05:53:00,33.1,31.8,30.10,East,90,1.1,0.0,95,0.00,CLR,,0.00,WeatherDisplay:10.37,2013-01-31 11:53:00,
2013-01-31 05:58:00,33.1,31.8,30.10,NW,315,0.0,0.0,95,0.00,CLR,,0.00,WeatherDisplay:10.37,2013-01-31 11:58:00,
2013-01-31 06:00:00,50.4,32.9,30.13,SE,135,0.0,1.0,51,0.00,CL,CL,0.00,WeatherDisplay:10.37,2013-01-31 12:00:00,
2013-01-31 06:03:00,33.3,32.0,30.11,NW,315,0.0,0.0,95,0.00,CLR,,0.00,WeatherDisplay:10.37,2013-01-31 12:03:00,
2013-01-31 06:08:00,33.1,31.8,30.11,NW,315,0.0,0.0,95,0.00,CLR,,0.00,WeatherDisplay:10.37,2013-01-31 12:08:00,
2013-01-31 06:13:00,32.7,31.4,30.11,NW,315,0.0,0.0,95,0.00,CLR,,0.00,WeatherDisplay:10.37,2013-01-31 12:13:00,
2013-01-31 06:18:00,32.5,31.3,30.11,NW,315,0.0,0.0,95,0.00,CLR,,0.00,WeatherDisplay:10.37,2013-01-31 12:18:00,
2013-01-31 06:23:00,32.5,31.3,30.11,SE,135,0.0,0.0,95,0.00,CLR,,0.00,WeatherDisplay:10.37,2013-01-31 12:23:00,
2013-01-31 06:28:00,32.5,31.3,30.11,SE,135,1.1,0.0,95,0.00,CLR,,0.00,WeatherDisplay:10.37,2013-01-31 12:28:00,
2013-01-31 06:34:00,32.7,31.4,30.12,SE,135,0.0,0.0,95,0.00,CLR,,0.00,WeatherDisplay:10.37,2013-01-31 12:34:00,
2013-01-31 06:39:00,32.7,31.4,30.11,West,270,1.1,0.0,95,0.00,CLR,,0.00,WeatherDisplay:10.37,2013-01-31 12:39:00,
2013-01-31 06:44:00,32.7,31.4,30.11,West,270,0.0,0.0,95,0.00,CLR,,0.00,WeatherDisplay:10.37,2013-01-31 12:44:00,
2013-01-31 06:49:00,32.7,31.7,30.12,West,270,0.0,0.0,96,0.00,CLR,,0.00,WeatherDisplay:10.37,2013-01-31 12:49:00,
2013-01-31 06:54:00,32.5,31.3,30.12,West,270,0.0,0.0,95,0.00,CLR,,0.00,WeatherDisplay:10.37,2013-01-31 12:54:00,
2013-01-31 06:59:00,32.4,31.1,30.12,West,270,0.0,0.0,95,0.00,CLR,,0.00,WeatherDisplay:10.37,2013-01-31 12:59:00,
2013-01-31 07:00:00,52.2,35.1,30.15,ESE,113,0.0,1.0,52,0.00,CL,CL,0.00,WeatherDisplay:10.37,2013-01-31 13:00:00,
2013-01-31 07:04:00,32.4,31.1,30.12,West,270,0.0,0.0,95,0.00,CLR,,0.00,WeatherDisplay:10.37,2013-01-31 13:04:00,
2013-01-31 07:09:00,32.2,30.9,30.12,West,270,0.0,0.0,95,0.00,CLR,,0.00,WeatherDisplay:10.37,2013-01-31 13:09:00,
2013-01-31 07:14:00,32.2,30.9,30.13,West,270,0.0,0.0,95,0.00,CLR,,0.00,WeatherDisplay:10.37,2013-01-31 13:14:00,
2013-01-31 07:19:00,32.4,31.3,30.14,West,270,0.0,0.0,96,0.00,CLR,,0.00,WeatherDisplay:10.37,2013-01-31 13:19:00,
2013-01-31 07:24:00,32.4,31.3,30.13,West,270,0.0,0.0,96,0.00,CLR,,0.00,WeatherDisplay:10.37,2013-01-31 13:24:00,
2013-01-31 07:29:00,32.5,31.5,30.15,West,270,0.0,0.0,96,0.00,CLR,,0.00,WeatherDisplay:10.37,2013-01-31 13:29:00,
2013-01-31 07:34:00,32.5,31.5,30.15,West,270,0.0,0.0,96,0.00,CLR,,0.00,WeatherDisplay:10.37,2013-01-31 13:34:00,
2013-01-31 07:39:00,32.7,31.7,30.15,West,270,0.0,0.0,96,0.00,CLR,,0.00,WeatherDisplay:10.37,2013-01-31 13:39:00,
2013-01-31 07:44:00,32.7,31.7,30.15,West,270,0.0,0.0,96,0.00,CLR,,0.00,WeatherDisplay:10.37,2013-01-31 13:44:00,
2013-01-31 07:49:00,32.9,31.9,30.15,West,270,0.0,0.0,96,0.00,CLR,,0.00,WeatherDisplay:10.37,2013-01-31 13:49:00,
2013-01-31 07:54:00,32.9,31.9,30.14,West,270,0.0,0.0,96,0.00,CLR,,0.00,WeatherDisplay:10.37,2013-01-31 13:54:00,
2013-01-31 07:59:00,33.1,32.1,30.15,West,270,0.0,0.0,96,0.00,CLR,,0.00,WeatherDisplay:10.37,2013-01-31 13:59:00,
2013-01-31 08:00:00,49.5,34.8,30.19,ESE,113,0.0,2.0,57,0.00,CL,CL,0.00,WeatherDisplay:10.37,2013-01-31 14:00:00,
2013-01-31 08:04:00,33.1,32.1,30.15,West,270,0.0,0.0,96,0.00,CLR,,0.00,WeatherDisplay:10.37,2013-01-31 14:04:00,
2013-01-31 08:09:00,33.4,32.4,30.16,West,270,0.0,0.0,96,0.00,CLR,,0.00,WeatherDisplay:10.37,2013-01-31 14:09:00,
2013-01-31 08:14:00,33.8,33.0,30.16,SW,225,1.1,0.0,97,0.00,CLR,,0.00,WeatherDisplay:10.37,2013-01-31 14:14:00,
2013-01-31 08:19:00,34.3,33.6,30.17,SW,225,0.0,0.0,97,0.00,CLR,,0.00,WeatherDisplay:10.37,2013-01-31 14:19:00,
2013-01-31 08:24:00,34.7,33.9,30.17,SW,225,0.0,0.0,97,0.00,CLR,,0.00,WeatherDisplay:10.37,2013-01-31 14:24:00,
2013-01-31 08:29:00,34.9,34.1,30.17,SW,225,0.0,0.0,97,0.00,CLR,,0.00,WeatherDisplay:10.37,2013-01-31 14:29:00,
2013-01-31 08:34:00,35.2,34.5,30.17,SW,225,0.0,0.0,97,0.00,CLR,,0.00,WeatherDisplay:10.37,2013-01-31 14:34:00,
2013-01-31 08:39:00,35.6,34.8,30.18,SE,135,1.1,0.0,97,0.00,CLR,,0.00,WeatherDisplay:10.37,2013-01-31 14:39:00,
2013-01-31 08:44:00,36.1,35.4,30.18,SW,225,1.1,0.0,97,0.00,CLR,,0.00,WeatherDisplay:10.37,2013-01-31 14:44:00,
2013-01-31 08:49:00,36.5,35.7,30.18,SW,225,1.1,0.0,97,0.00,CLR,,0.00,WeatherDisplay:10.37,2013-01-31 14:49:00,
2013-01-31 08:54:00,37.2,36.4,30.19,SW,225,1.6,0.0,97,0.00,CLR,,0.00,WeatherDisplay:10.37,2013-01-31 14:54:00,
2013-01-31 09:00:00,37.6,36.8,30.18,NE,45,1.1,0.0,97,0.00,CLR,,0.00,WeatherDisplay:10.37,2013-01-31 15:00:00,
2013-01-31 09:05:00,37.6,36.8,30.19,NE,45,1.1,0.0,97,0.00,CLR,,0.00,WeatherDisplay:10.37,2013-01-31 15:05:00,
2013-01-31 09:10:00,39.4,38.6,30.19,South,180,1.1,0.0,97,0.00,CLR,,0.00,WeatherDisplay:10.37,2013-01-31 15:10:00,
2013-01-31 09:15:00,40.1,39.3,30.19,South,180,0.0,0.0,97,0.00,CLR,,0.00,WeatherDisplay:10.37,2013-01-31 15:15:00,
2013-01-31 09:20:00,41.1,40.1,30.19,SSE,153,0.0,2.0,96,0.00,CLR,,0.00,WeatherDisplay:10.37,2013-01-31 15:20:00,
2013-01-31 09:25:00,42.7,41.6,30.19,ESE,116,0.0,2.0,96,0.00,CLR,,0.00,WeatherDisplay:10.37,2013-01-31 15:25:00,
2013-01-31 09:30:00,43.9,42.3,30.19,SSW,212,0.0,2.0,94,0.00,CLR,,0.00,WeatherDisplay:10.37,2013-01-31 15:30:00,
2013-01-31 09:35:00,45.0,42.5,30.19,West,270,2.3,2.3,91,0.00,CLR,,0.00,WeatherDisplay:10.37,2013-01-31 15:35:00,
2013-01-31 09:40:00,46.4,42.7,30.20,SE,135,2.3,2.3,87,0.00,CLR,,0.00,WeatherDisplay:10.37,2013-01-31 15:40:00,
2013-01-31 09:45:00,48.0,42.8,30.20,SE,132,0.0,3.0,82,0.00,CLR,,0.00,WeatherDisplay:10.37,2013-01-31 15:45:00,
2013-01-31 09:50:00,49.7,43.1,30.20,South,186,0.0,3.0,78,0.00,CLR,,0.00,WeatherDisplay:10.37,2013-01-31 15:50:00,
2013-01-31 09:55:00,50.4,40.6,30.20,SSE,159,1.0,5.0,69,0.00,CLR,,0.00,WeatherDisplay:10.37,2013-01-31 15:55:00,
2013-01-31 10:00:00,51.4,41.6,30.20,SE,132,0.0,2.0,69,0.00,CLR,,0.00,WeatherDisplay:10.37,2013-01-31 16:00:00,
2013-01-31 10:05:00,51.4,41.6,30.20,West,275,0.0,1.0,69,0.00,CLR,,0.00,WeatherDisplay:10.37,2013-01-31 16:05:00,
2013-01-31 10:10:00,53.6,39.6,30.20,SE,135,3.5,0.0,59,0.00,CLR,,0.00,WeatherDisplay:10.37,2013-01-31 16:10:00,
2013-01-31 10:15:00,54.3,39.4,30.20,SW,225,3.5,3.5,57,0.00,CLR,,0.00,WeatherDisplay:10.37,2013-01-31 16:15:00,
2013-01-31 10:20:00,55.4,40.4,30.20,East,90,3.5,3.5,57,0.00,CLR,,0.00,WeatherDisplay:10.37,2013-01-31 16:20:00,
2013-01-31 10:25:00,55.4,38.5,30.20,SW,225,3.5,3.5,53,0.00,CLR,,0.00,WeatherDisplay:10.37,2013-01-31 16:25:00,
2013-01-31 10:30:00,55.8,40.4,30.20,WSW,258,0.0,4.0,56,0.00,CLR,,0.00,WeatherDisplay:10.37,2013-01-31 16:30:00,
2013-01-31 10:35:00,56.8,39.4,30.19,East,90,3.5,3.5,52,0.00,CLR,,0.00,WeatherDisplay:10.37,2013-01-31 16:35:00,
2013-01-31 10:40:00,57.7,39.7,30.19,SE,135,3.5,3.5,51,0.00,CLR,,0.00,WeatherDisplay:10.37,2013-01-31 16:40:00,
2013-01-31 10:45:00,58.5,38.8,30.20,West,270,3.5,0.0,48,0.00,CLR,,0.00,WeatherDisplay:10.37,2013-01-31 16:45:00,
2013-01-31 10:50:00,58.1,35.7,30.20,East,90,5.8,5.8,43,0.00,CLR,,0.00,WeatherDisplay:10.37,2013-01-31 16:50:00,
2013-01-31 10:56:00,58.6,36.8,30.20,West,270,4.5,4.5,44,0.00,CLR,,0.00,WeatherDisplay:10.37,2013-01-31 16:56:00,
2013-01-31 11:01:00,59.5,35.8,30.19,SE,135,4.6,4.6,41,0.00,CLR,,0.00,WeatherDisplay:10.37,2013-01-31 17:01:00,
2013-01-31 11:06:00,59.5,35.8,30.19,SE,135,3.8,3.8,41,0.00,CLR,,0.00,WeatherDisplay:10.37,2013-01-31 17:06:00,
2013-01-31 11:11:00,61.3,36.2,30.19,NW,315,5.8,5.8,39,0.00,CLR,,0.00,WeatherDisplay:10.37,2013-01-31 17:11:00,
2013-01-31 11:17:00,60.6,34.9,30.19,ENE,68,4.6,4.6,38,0.00,CLR,,0.00,WeatherDisplay:10.37,2013-01-31 17:17:00,
2013-01-31 11:22:00,61.0,33.8,30.19,SSW,202,9.2,9.2,36,0.00,CLR,,0.00,WeatherDisplay:10.37,2013-01-31 17:22:00,
2013-01-31 11:27:00,60.4,33.3,30.19,SW,225,5.8,5.8,36,0.00,CLR,,0.00,WeatherDisplay:10.37,2013-01-31 17:27:00,
2013-01-31 11:33:00,60.3,29.5,30.19,WSW,248,4.6,4.6,31,0.00,CLR,,0.00,WeatherDisplay:10.37,2013-01-31 17:33:00,
2013-01-31 11:38:00,59.7,32.0,30.18,West,270,5.8,5.8,35,0.00,CLR,,0.00,WeatherDisplay:10.37,2013-01-31 17:38:00,
2013-01-31 11:43:00,59.7,30.5,30.18,SW,225,5.8,5.8,33,0.00,CLR,,0.00,WeatherDisplay:10.37,2013-01-31 17:43:00,
2013-01-31 11:48:00,60.1,33.7,30.18,NE,45,2.3,2.3,37,0.00,CLR,,0.00,WeatherDisplay:10.37,2013-01-31 17:48:00,
2013-01-31 11:53:00,61.2,34.7,30.17,East,90,3.5,3.5,37,0.00,CLR,,0.00,WeatherDisplay:10.37,2013-01-31 17:53:00,
2013-01-31 11:58:00,62.2,32.8,30.18,SE,135,5.8,5.8,33,0.00,CLR,,0.00,WeatherDisplay:10.37,2013-01-31 17:58:00,
2013-01-31 12:00:00,59.6,57.6,29.84,ESE,113,1.0,3.0,93,0.00,,CL,0.00,WeatherDisplay:10.37,2013-01-31 18:00:00,
2013-01-31 12:03:00,62.6,33.1,30.18,NW,315,5.8,5.8,33,0.00,CLR,,0.00,WeatherDisplay:10.37,2013-01-31 18:03:00,
2013-01-31 12:08:00,62.1,27.7,30.18,SE,135,5.8,5.8,27,0.00,CLR,,0.00,WeatherDisplay:10.37,2013-01-31 18:08:00,
2013-01-31 12:13:00,61.3,32.0,30.17,West,270,3.5,3.5,33,0.00,CLR,,0.00,WeatherDisplay:10.37,2013-01-31 18:13:00,
2013-01-31 12:19:00,62.6,31.5,30.17,East,90,4.6,4.6,31,0.00,CLR,,0.00,WeatherDisplay:10.37,2013-01-31 18:19:00,
2013-01-31 12:24:00,63.0,33.4,30.17,NW,315,3.5,3.5,33,0.00,CLR,,0.00,WeatherDisplay:10.37,2013-01-31 18:24:00,
2013-01-31 12:30:00,63.0,31.8,30.17,West,270,6.9,6.9,31,0.00,CLR,,0.00,WeatherDisplay:10.37,2013-01-31 18:30:00,
2013-01-31 12:35:00,63.0,34.1,30.16,South,180,5.8,0.0,34,0.00,CLR,,0.00,WeatherDisplay:10.37,2013-01-31 18:35:00,
2013-01-31 12:40:00,63.7,32.5,30.15,South,180,5.8,5.8,31,0.00,CLR,,0.00,WeatherDisplay:10.37,2013-01-31 18:40:00,
2013-01-31 12:45:00,63.3,28.7,30.15,West,270,8.1,8.1,27,0.00,CLR,,0.00,WeatherDisplay:10.37,2013-01-31 18:45:00,
2013-01-31 12:50:00,62.9,31.7,30.15,WSW,238,1.0,8.0,31,0.00,CLR,,0.00,WeatherDisplay:10.37,2013-01-31 18:50:00,
2013-01-31 12:55:00,64.4,33.1,30.14,ESE,122,0.0,7.0,31,0.00,CLR,,0.00,WeatherDisplay:10.37,2013-01-31 18:55:00,
2013-01-31 13:00:00,58.8,58.0,29.86,NNW,338,1.0,3.0,97,0.02,CL,CL,0.00,WeatherDisplay:10.37,2013-01-31 19:00:00,
2013-01-31 13:01:00,64.2,32.1,30.14,SW,225,2.3,2.3,30,0.00,CLR,,0.00,WeatherDisplay:10.37,2013-01-31 19:01:00,
2013-01-31 13:06:00,64.6,32.4,30.14,SE,135,5.8,5.8,30,0.00,CLR,,0.00,WeatherDisplay:10.37,2013-01-31 19:06:00,
2013-01-31 13:11:00,64.0,30.2,30.14,NW,315,3.5,3.8,28,0.00,CLR,,0.00,WeatherDisplay:10.37,2013-01-31 19:11:00,
2013-01-31 13:16:00,63.1,30.3,30.14,SE,135,3.5,3.5,29,0.00,CLR,,0.00,WeatherDisplay:10.37,2013-01-31 19:16:00,
2013-01-31 13:21:00,63.3,29.6,30.13,SW,225,4.6,4.6,28,0.00,CLR,,0.00,WeatherDisplay:10.37,2013-01-31 19:21:00,
2013-01-31 13:26:00,63.7,29.9,30.13,SE,135,3.5,3.5,28,0.00,CLR,,0.00,WeatherDisplay:10.37,2013-01-31 19:26:00,
2013-01-31 13:31:00,64.4,31.4,30.13,SW,225,3.5,0.0,29,0.00,CLR,,0.00,WeatherDisplay:10.37,2013-01-31 19:31:00,
2013-01-31 13:36:00,64.2,30.4,30.13,SW,225,3.8,3.8,28,0.00,CLR,,0.00,WeatherDisplay:10.37,2013-01-31 19:36:00,
2013-01-31 13:41:00,64.6,29.8,30.13,East,90,3.5,3.5,27,0.00,CLR,,0.00,WeatherDisplay:10.37,2013-01-31 19:41:00,
2013-01-31 13:46:00,64.4,27.8,30.13,ENE,68,12.7,12.7,25,0.00,CLR,,0.00,WeatherDisplay:10.37,2013-01-31 19:46:00,
2013-01-31 13:51:00,64.2,31.3,30.13,NE,45,3.5,3.5,29,0.00,CLR,,0.00,WeatherDisplay:10.37,2013-01-31 19:51:00,
2013-01-31 13:56:00,63.5,29.8,30.13,SW,225,8.1,0.0,28,0.00,CLR,,0.00,WeatherDisplay:10.37,2013-01-31 19:56:00,
2013-01-31 14:00:00,58.5,57.9,29.85,NNE,23,2.0,3.0,98,0.02,CL,CL,0.00,WeatherDisplay:10.37,2013-01-31 20:00:00,
2013-01-31 14:01:00,63.5,31.5,30.13,East,90,3.5,0.0,30,0.00,CLR,,0.00,WeatherDisplay:10.37,2013-01-31 20:01:00,
2013-01-31 14:06:00,63.5,31.5,30.13,SW,225,3.5,0.0,30,0.00,CLR,,0.00,WeatherDisplay:10.37,2013-01-31 20:06:00,
2013-01-31 14:11:00,63.5,28.0,30.13,SE,135,5.8,5.8,26,0.00,CLR,,0.00,WeatherDisplay:10.37,2013-01-31 20:11:00,
2013-01-31 14:16:00,63.3,30.5,30.13,SW,225,4.6,0.0,29,0.00,CLR,,0.00,WeatherDisplay:10.37,2013-01-31 20:16:00,
2013-01-31 14:21:00,62.6,29.9,30.13,SE,135,5.8,5.8,29,0.00,CLR,,0.00,WeatherDisplay:10.37,2013-01-31 20:21:00,
2013-01-31 14:26:00,62.8,27.4,30.12,SW,225,6.9,0.0,26,0.00,CLR,,0.00,WeatherDisplay:10.37,2013-01-31 20:26:00,
2013-01-31 14:31:00,62.4,28.9,30.12,East,90,4.6,4.6,28,0.00,CLR,,0.00,WeatherDisplay:10.37,2013-01-31 20:31:00,
2013-01-31 14:36:00,61.9,30.1,30.12,SE,135,5.8,0.0,30,0.00,CLR,,0.00,WeatherDisplay:10.37,2013-01-31 20:36:00,
2013-01-31 14:41:00,61.9,29.2,30.12,SW,225,3.5,3.5,29,0.00,CLR,,0.00,WeatherDisplay:10.37,2013-01-31 20:41:00,
2013-01-31 14:47:00,62.2,29.6,30.12,WSW,248,3.5,3.5,29,0.00,CLR,,0.00,WeatherDisplay:10.37,2013-01-31 20:47:00,
2013-01-31 14:52:00,63.1,29.5,30.11,NW,315,8.1,8.1,28,0.00,CLR,,0.00,WeatherDisplay:10.37,2013-01-31 20:52:00,
2013-01-31 14:57:00,63.0,29.3,30.11,South,180,1.1,1.6,28,0.00,CLR,,0.00,WeatherDisplay:10.37,2013-01-31 20:57:00,
2013-01-31 15:00:00,57.6,57.3,29.86,WNW,293,0.0,1.0,99,0.04,CL,CL,0.00,WeatherDisplay:10.37,2013-01-31 21:00:00,
2013-01-31 15:02:00,62.8,30.9,30.11,North,0,3.5,3.5,30,0.00,CLR,,0.00,WeatherDisplay:10.37,2013-01-31 21:02:00,
2013-01-31 15:07:00,62.4,28.9,30.11,SW,225,9.2,9.2,28,0.00,CLR,,0.00,WeatherDisplay:10.37,2013-01-31 21:07:00,
2013-01-31 15:12:00,61.7,28.2,30.11,SW,225,8.1,8.1,28,0.00,CLR,,0.00,WeatherDisplay:10.37,2013-01-31 21:12:00,
2013-01-31 15:18:00,61.9,29.2,30.11,South,180,3.5,3.5,29,0.00,CLR,,0.00,WeatherDisplay:10.37,2013-01-31 21:18:00,
2013-01-31 15:23:00,61.5,29.8,30.11,SE,135,3.5,0.0,30,0.00,CLR,,0.00,WeatherDisplay:10.37,2013-01-31 21:23:00,
2013-01-31 15:28:00,61.7,29.9,30.12,West,270,5.8,5.8,30,0.00,CLR,,0.00,WeatherDisplay:10.37,2013-01-31 21:28:00,
2013-01-31 15:33:00,61.5,28.1,30.11,SW,225,5.8,5.8,28,0.00,CLR,,0.00,WeatherDisplay:10.37,2013-01-31 21:33:00,
2013-01-31 15:38:00,61.9,29.2,30.12,SW,225,2.3,2.3,29,0.00,CLR,,0.00,WeatherDisplay:10.37,2013-01-31 21:38:00,
2013-01-31 15:43:00,61.5,29.8,30.12,South,180,3.5,3.5,30,0.00,CLR,,0.00,WeatherDisplay:10.37,2013-01-31 21:43:00,
2013-01-31 15:48:00,61.7,29.1,30.11,SSE,158,5.8,5.8,29,0.00,CLR,,0.00,WeatherDisplay:10.37,2013-01-31 21:48:00,
2013-01-31 15:54:00,61.3,27.9,30.11,West,270,4.6,4.6,28,0.00,CLR,,0.00,WeatherDisplay:10.37,2013-01-31 21:54:00,
2013-01-31 15:59:00,61.0,30.1,30.11,SW,225,2.3,2.3,31,0.00,CLR,,0.00,WeatherDisplay:10.37,2013-01-31 21:59:00,
2013-01-31 16:00:00,56.9,56.6,29.87,WNW,293,1.0,2.0,99,0.04,CL,CL,0.00,WeatherDisplay:10.37,2013-01-31 22:00:00,
2013-01-31 16:04:00,61.0,30.9,30.11,NNE,22,2.3,2.3,32,0.00,CLR,,0.00,WeatherDisplay:10.37,2013-01-31 22:04:00,
2013-01-31 16:09:00,60.6,29.8,30.11,East,90,3.5,0.0,31,0.00,CLR,,0.00,WeatherDisplay:10.37,2013-01-31 22:09:00,
2013-01-31 16:14:00,60.4,29.6,30.11,SW,225,4.6,0.0,31,0.00,CLR,,0.00,WeatherDisplay:10.37,2013-01-31 22:14:00,
2013-01-31 16:19:00,60.4,30.4,30.10,NE,45,2.3,0.0,32,0.00,CLR,,0.00,WeatherDisplay:10.37,2013-01-31 22:19:00,
2013-01-31 16:24:00,60.3,31.0,30.11,SE,135,1.1,1.6,33,0.00,CLR,,0.00,WeatherDisplay:10.37,2013-01-31 22:24:00,
2013-01-31 16:29:00,60.3,29.5,30.11,East,90,5.8,5.8,31,0.00,CLR,,0.00,WeatherDisplay:10.37,2013-01-31 22:29:00,
2013-01-31 16:34:00,60.3,30.3,30.11,South,180,2.3,2.3,32,0.00,CLR,,0.00,WeatherDisplay:10.37,2013-01-31 22:34:00,
2013-01-31 16:39:00,60.1,31.6,30.11,SE,135,5.8,5.8,34,0.00,CLR,,0.00,WeatherDisplay:10.37,2013-01-31 22:39:00,
2013-01-31 16:44:00,59.9,29.9,30.11,South,180,3.5,0.0,32,0.00,CLR,,0.00,WeatherDisplay:10.37,2013-01-31 22:44:00,
2013-01-31 16:49:00,59.9,29.9,30.11,SE,135,1.1,0.0,32,0.00,CLR,,0.00,WeatherDisplay:10.37,2013-01-31 22:49:00,
2013-01-31 16:54:00,59.5,30.4,30.12,East,90,3.5,3.5,33,0.00,CLR,,0.00,WeatherDisplay:10.37,2013-01-31 22:54:00,
2013-01-31 16:59:00,59.4,31.7,30.12,SE,135,3.5,0.0,35,0.00,CLR,,0.00,WeatherDisplay:10.37,2013-01-31 22:59:00,
2013-01-31 17:00:00,55.8,55.5,29.88,West,270,1.0,3.0,99,0.02,CL,CL,0.00,WeatherDisplay:10.37,2013-01-31 23:00:00,
2013-01-31 17:04:00,59.2,31.5,30.12,SE,135,2.3,2.3,35,0.00,CLR,,0.00,WeatherDisplay:10.37,2013-01-31 23:04:00,
2013-01-31 17:10:00,58.8,31.2,30.11,South,180,2.2,2.2,35,0.00,CLR,,0.00,WeatherDisplay:10.37,2013-01-31 23:10:00,
2013-01-31 17:15:00,58.5,30.2,30.12,SE,135,2.3,0.0,34,0.00,CLR,,0.00,WeatherDisplay:10.37,2013-01-31 23:15:00,
2013-01-31 17:20:00,58.3,30.7,30.12,NE,45,2.3,2.3,35,0.00,CLR,,0.00,WeatherDisplay:10.37,2013-01-31 23:20:00,
2013-01-31 17:25:00,58.1,30.6,30.13,South,180,1.1,0.0,35,0.00,CLR,,0.00,WeatherDisplay:10.37,2013-01-31 23:25:00,
2013-01-31 17:30:00,57.7,30.2,30.12,South,180,1.1,0.0,35,0.00,CLR,,0.00,WeatherDisplay:10.37,2013-01-31 23:30:00,
2013-01-31 17:35:00,57.4,29.9,30.12,SE,135,3.5,0.0,35,0.00,CLR,,0.00,WeatherDisplay:10.37,2013-01-31 23:35:00,
2013-01-31 17:40:00,57.2,31.1,30.12,SE,135,1.1,0.0,37,0.00,CLR,,0.00,WeatherDisplay:10.37,2013-01-31 23:40:00,
2013-01-31 17:45:00,56.5,31.2,30.12,SE,135,1.1,0.0,38,0.00,CLR,,0.00,WeatherDisplay:10.37,2013-01-31 23:45:00,
2013-01-31 17:50:00,56.1,30.8,30.11,SE,135,1.1,0.0,38,0.00,CLR,,0.00,WeatherDisplay:10.37,2013-01-31 23:50:00,
2013-01-31 17:55:00,55.8,31.2,30.12,SE,135,1.1,0.0,39,0.00,CLR,,0.00,WeatherDisplay:10.37,2013-01-31 23:55:00,
2013-01-31 18:00:00,55.4,30.8,30.11,SE,135,1.1,0.0,39,0.00,CLR,,0.00,WeatherDisplay:10.37,2013-02-01 00:00:00,
2013-01-31 18:05:00,55.4,30.8,30.12,SE,129,0.0,2.0,39,0.00,CLR,,0.00,WeatherDisplay:10.37,2013-02-01 00:05:00,
2013-01-31 18:10:00,54.7,31.4,30.11,SE,135,1.1,0.0,41,0.00,CLR,,0.00,WeatherDisplay:10.37,2013-02-01 00:10:00,
2013-01-31 18:15:00,54.0,32.0,30.12,SE,135,0.0,0.0,43,0.00,CLR,,0.00,WeatherDisplay:10.37,2013-02-01 00:15:00,
2013-01-31 18:21:00,53.1,31.7,30.11,SE,135,1.1,0.0,44,0.00,CLR,,0.00,WeatherDisplay:10.37,2013-02-01 00:21:00,
2013-01-31 18:26:00,52.5,32.9,30.11,SE,135,0.0,0.0,47,0.00,CLR,,0.00,WeatherDisplay:10.37,2013-02-01 00:26:00,
2013-01-31 18:31:00,51.8,32.7,30.12,North,0,0.0,0.0,48,0.00,CLR,,0.00,WeatherDisplay:10.37,2013-02-01 00:31:00,
2013-01-31 18:36:00,51.3,32.7,30.12,SE,135,1.1,0.0,49,0.00,CLR,,0.00,WeatherDisplay:10.37,2013-02-01 00:36:00,
2013-01-31 18:42:00,50.9,32.4,30.12,SE,135,0.0,0.0,49,0.00,CLR,,0.00,WeatherDisplay:10.37,2013-02-01 00:42:00,
2013-01-31 18:47:00,50.5,33.1,30.12,SW,225,0.0,0.0,51,0.00,CLR,,0.00,WeatherDisplay:10.37,2013-02-01 00:47:00,
2013-01-31 18:52:00,50.2,33.2,30.12,SE,135,0.0,0.0,52,0.00,CLR,,0.00,WeatherDisplay:10.37,2013-02-01 00:52:00,
2013-01-31 18:57:00,50.0,33.1,30.12,SE,135,2.3,0.0,52,0.00,CLR,,0.00,WeatherDisplay:10.37,2013-02-01 00:57:00,
2013-01-31 19:02:00,50.5,33.1,30.13,SE,135,1.1,0.0,51,0.00,CLR,,0.00,WeatherDisplay:10.37,2013-02-01 01:02:00,
2013-01-31 19:07:00,50.5,33.1,30.13,SE,135,1.1,0.0,51,0.00,CLR,,0.00,WeatherDisplay:10.37,2013-02-01 01:07:00,
2013-01-31 19:12:00,52.2,33.6,30.12,SE,135,2.3,2.3,49,0.00,CLR,,0.00,WeatherDisplay:10.37,2013-02-01 01:12:00,
2013-01-31 19:17:00,52.5,33.4,30.12,East,90,2.3,2.3,48,0.00,CLR,,0.00,WeatherDisplay:10.37,2013-02-01 01:17:00,
2013-01-31 19:22:00,52.9,33.7,30.13,SE,135,3.5,3.5,48,0.00,CLR,,0.00,WeatherDisplay:10.37,2013-02-01 01:22:00,
2013-01-31 19:27:00,53.1,33.9,30.13,East,90,2.3,0.0,48,0.00,CLR,,0.00,WeatherDisplay:10.37,2013-02-01 01:27:00,
2013-01-31 19:32:00,53.1,33.9,30.14,East,90,2.3,0.0,48,0.00,CLR,,0.00,WeatherDisplay:10.37,2013-02-01 01:32:00,
2013-01-31 19:37:00,53.1,34.4,30.14,North,0,2.3,2.3,49,0.00,CLR,,0.00,WeatherDisplay:10.37,2013-02-01 01:37:00,
2013-01-31 19:42:00,53.1,34.9,30.14,West,270,3.5,0.0,50,0.00,CLR,,0.00,WeatherDisplay:10.37,2013-02-01 01:42:00,
2013-01-31 19:47:00,52.9,35.2,30.14,SE,135,2.3,0.0,51,0.00,CLR,,0.00,WeatherDisplay:10.37,2013-02-01 01:47:00,
2013-01-31 19:52:00,52.7,35.1,30.14,East,90,3.5,0.0,51,0.00,CLR,,0.00,WeatherDisplay:10.37,2013-02-01 01:52:00,
2013-01-31 19:57:00,52.5,35.4,30.14,ENE,68,1.1,1.1,52,0.00,CLR,,0.00,WeatherDisplay:10.37,2013-02-01 01:57:00,
2013-01-31 20:02:00,52.2,35.1,30.15,East,90,1.1,0.0,52,0.00,CLR,,0.00,WeatherDisplay:10.37,2013-02-01 02:02:00,
2013-01-31 20:07:00,52.2,35.1,30.16,East,90,1.1,0.0,52,0.00,CLR,,0.00,WeatherDisplay:10.37,2013-02-01 02:07:00,
2013-01-31 20:12:00,51.4,35.3,30.16,SE,135,1.1,0.0,54,0.00,CLR,,0.00,WeatherDisplay:10.37,2013-02-01 02:12:00,
2013-01-31 20:17:00,51.1,35.0,30.17,SE,135,1.1,0.0,54,0.00,CLR,,0.00,WeatherDisplay:10.37,2013-02-01 02:17:00,
2013-01-31 20:22:00,51.1,35.5,30.17,SE,135,2.3,0.0,55,0.00,CLR,,0.00,WeatherDisplay:10.37,2013-02-01 02:22:00,
2013-01-31 20:27:00,51.1,35.5,30.17,South,180,1.1,0.0,55,0.00,CLR,,0.00,WeatherDisplay:10.37,2013-02-01 02:27:00,
2013-01-31 20:32:00,50.7,35.1,30.18,SE,135,1.1,0.0,55,0.00,CLR,,0.00,WeatherDisplay:10.37,2013-02-01 02:32:00,
2013-01-31 20:37:00,50.4,35.2,30.18,SE,135,1.1,0.0,56,0.00,CLR,,0.00,WeatherDisplay:10.37,2013-02-01 02:37:00,
2013-01-31 20:42:00,50.4,35.2,30.18,SSE,158,2.3,0.0,56,0.00,CLR,,0.00,WeatherDisplay:10.37,2013-02-01 02:42:00,
2013-01-31 20:47:00,50.2,35.1,30.19,East,90,1.1,0.0,56,0.00,CLR,,0.00,WeatherDisplay:10.37,2013-02-01 02:47:00,
2013-01-31 20:52:00,50.0,35.4,30.19,ENE,68,1.1,0.0,57,0.00,CLR,,0.00,WeatherDisplay:10.37,2013-02-01 02:52:00,
2013-01-31 20:57:00,49.8,35.2,30.19,SE,135,1.1,0.0,57,0.00,CLR,,0.00,WeatherDisplay:10.37,2013-02-01 02:57:00,
2013-01-31 21:02:00,49.5,34.8,30.19,East,90,2.3,2.3,57,0.00,CLR,,0.00,WeatherDisplay:10.37,2013-02-01 03:02:00,
2013-01-31 21:07:00,49.5,34.8,30.20,East,90,2.3,2.3,57,0.00,CLR,,0.00,WeatherDisplay:10.37,2013-02-01 03:07:00,
2013-01-31 21:12:00,49.3,34.7,30.20,South,180,1.1,0.0,57,0.00,CLR,,0.00,WeatherDisplay:10.37,2013-02-01 03:12:00,
2013-01-31 21:17:00,49.5,34.8,30.20,SE,135,1.1,0.0,57,0.00,CLR,,0.00,WeatherDisplay:10.37,2013-02-01 03:17:00,
2013-01-31 21:22:00,49.5,34.4,30.20,SE,135,1.1,0.0,56,0.00,CLR,,0.00,WeatherDisplay:10.37,2013-02-01 03:22:00,
2013-01-31 21:27:00,49.3,34.7,30.20,SE,135,1.1,0.0,57,0.00,CLR,,0.00,WeatherDisplay:10.37,2013-02-01 03:27:00,
2013-01-31 21:32:00,49.1,34.9,30.20,NE,45,1.1,0.0,58,0.00,CLR,,0.00,WeatherDisplay:10.37,2013-02-01 03:32:00,
2013-01-31 21:37:00,48.4,34.7,30.20,SE,135,1.1,0.0,59,0.00,CLR,,0.00,WeatherDisplay:10.37,2013-02-01 03:37:00,
2013-01-31 21:42:00,48.0,34.8,30.20,SE,135,1.1,0.0,60,0.00,CLR,,0.00,WeatherDisplay:10.37,2013-02-01 03:42:00,
2013-01-31 21:47:00,47.8,34.6,30.20,SE,135,2.3,0.0,60,0.00,CLR,,0.00,WeatherDisplay:10.37,2013-02-01 03:47:00,
2013-01-31 21:52:00,47.8,34.6,30.21,South,180,1.1,0.0,60,0.00,CLR,,0.00,WeatherDisplay:10.37,2013-02-01 03:52:00,
2013-01-31 21:58:00,47.5,34.7,30.20,SE,135,1.1,0.0,61,0.00,CLR,,0.00,WeatherDisplay:10.37,2013-02-01 03:58:00,
2013-01-31 22:03:00,47.5,34.7,30.20,SE,135,1.1,0.0,61,0.00,CLR,,0.00,WeatherDisplay:10.37,2013-02-01 04:03:00,
2013-01-31 22:08:00,47.3,34.5,30.21,North,0,1.1,0.0,61,0.00,CLR,,0.00,WeatherDisplay:10.37,2013-02-01 04:08:00,
2013-01-31 22:13:00,47.3,34.9,30.21,East,90,1.1,0.0,62,0.00,CLR,,0.00,WeatherDisplay:10.37,2013-02-01 04:13:00,
2013-01-31 22:18:00,47.1,34.8,30.20,SE,135,1.1,0.0,62,0.00,CLR,,0.00,WeatherDisplay:10.37,2013-02-01 04:18:00,
2013-01-31 22:23:00,47.1,35.2,30.20,SE,135,2.3,0.0,63,0.00,CLR,,0.00,WeatherDisplay:10.37,2013-02-01 04:23:00,
2013-01-31 22:28:00,47.1,35.2,30.20,South,180,1.1,0.0,63,0.00,CLR,,0.00,WeatherDisplay:10.37,2013-02-01 04:28:00,
2013-01-31 22:33:00,46.9,35.0,30.20,West,270,0.0,0.0,63,0.00,CLR,,0.00,WeatherDisplay:10.37,2013-02-01 04:33:00,
2013-01-31 22:38:00,46.8,35.2,30.21,NW,315,1.1,0.0,64,0.00,CLR,,0.00,WeatherDisplay:10.37,2013-02-01 04:38:00,
2013-01-31 22:43:00,46.6,35.0,30.21,SE,135,1.1,0.0,64,0.00,CLR,,0.00,WeatherDisplay:10.37,2013-02-01 04:43:00,
2013-01-31 22:48:00,46.4,34.9,30.21,SE,135,1.1,0.0,64,0.00,CLR,,0.00,WeatherDisplay:10.37,2013-02-01 04:48:00,
2013-01-31 22:54:00,46.6,35.0,30.21,SE,135,1.1,0.0,64,0.00,CLR,,0.00,WeatherDisplay:10.37,2013-02-01 04:54:00,
2013-01-31 22:59:00,46.8,35.6,30.21,SE,135,1.1,0.0,65,0.00,CLR,,0.00,WeatherDisplay:10.37,2013-02-01 04:59:00,
2013-01-31 23:00:00,46.8,35.6,30.21,South,180,1.1,0.0,65,0.00,CLR,,0.00,WeatherDisplay:10.37,2013-02-01 05:00:00,
2013-01-31 23:03:00,46.8,35.6,30.21,South,180,1.1,0.0,65,0.00,CLR,,0.00,WeatherDisplay:10.37,2013-02-01 05:03:00,
2013-01-31 23:08:00,46.6,35.8,30.21,East,90,1.1,0.0,66,0.00,CLR,,0.00,WeatherDisplay:10.37,2013-02-01 05:08:00,
2013-01-31 23:13:00,46.4,35.3,30.21,SE,135,1.1,0.0,65,0.00,CLR,,0.00,WeatherDisplay:10.37,2013-02-01 05:13:00,
2013-01-31 23:18:00,46.6,35.8,30.21,SW,225,1.1,0.0,66,0.00,CLR,,0.00,WeatherDisplay:10.37,2013-02-01 05:18:00,
2013-01-31 23:24:00,46.6,35.4,30.21,SE,135,1.1,0.0,65,0.00,CLR,,0.00,WeatherDisplay:10.37,2013-02-01 05:24:00,
2013-01-31 23:29:00,46.6,35.8,30.21,SE,135,0.0,0.0,66,0.00,CLR,,0.00,WeatherDisplay:10.37,2013-02-01 05:29:00,
2013-01-31 23:34:00,46.4,35.7,30.21,SE,135,1.1,0.0,66,0.00,CLR,,0.00,WeatherDisplay:10.37,2013-02-01 05:34:00,
2013-01-31 23:39:00,46.8,36.0,30.21,SE,135,1.1,0.0,66,0.00,CLR,,0.00,WeatherDisplay:10.37,2013-02-01 05:39:00,
2013-01-31 23:45:00,46.9,36.2,30.21,East,90,1.1,0.0,66,0.00,CLR,,0.00,WeatherDisplay:10.37,2013-02-01 05:45:00,
2013-01-31 23:50:00,46.8,36.0,30.21,South,180,1.1,0.0,66,0.00,CLR,,0.00,WeatherDisplay:10.37,2013-02-01 05:50:00,
2013-01-31 23:55:00,46.8,36.0,30.21,SW,225,1.1,0.0,66,0.00,CLR,,0.00,WeatherDisplay:10.37,2013-02-01 05:55:00,